TimeCDT,TemperatureF,Dew PointF,Humidity,Sea Level PressureIn,VisibilityMPH,Wind Direction,Wind SpeedMPH,Gust SpeedMPH,PrecipitationIn,Events,Conditions,WindDirDegrees,DateUTC
12:15 AM,86.5,67.6,53,29.98,10.0,SSE,8.1,-,N/A,,Clear,160,2013-08-02 05:15:00
12:35 AM,86.0,67.8,54,29.97,10.0,SSE,6.9,-,N/A,,Clear,160,2013-08-02 05:35:00
12:55 AM,85.5,68.9,57,29.97,10.0,South,8.1,-,N/A,,Clear,180,2013-08-02 05:55:00
1:15 AM,84.7,70.2,61,29.97,10.0,South,6.9,-,N/A,,Clear,170,2013-08-02 06:15:00
1:35 AM,84.4,71.2,65,29.96,10.0,South,6.9,-,N/A,,Clear,190,2013-08-02 06:35:00
1:55 AM,84.0,72.0,67,29.95,10.0,South,8.1,-,N/A,,Clear,190,2013-08-02 06:55:00
2:15 AM,83.3,72.5,70,29.95,10.0,South,6.9,-,N/A,,Clear,180,2013-08-02 07:15:00
2:35 AM,82.9,72.7,71,29.95,10.0,South,6.9,-,N/A,,Clear,190,2013-08-02 07:35:00
2:55 AM,82.4,72.9,73,29.95,10.0,South,5.8,-,N/A,,Clear,190,2013-08-02 07:55:00
3:15 AM,82.4,73.0,73,29.95,10.0,SSW,4.6,-,N/A,,Clear,210,2013-08-02 08:15:00
3:35 AM,81.9,73.4,75,29.96,10.0,SW,5.8,-,N/A,,Clear,230,2013-08-02 08:35:00
3:55 AM,81.7,73.4,76,29.96,10.0,SW,3.5,-,N/A,,Clear,220,2013-08-02 08:55:00
4:15 AM,81.1,73.4,77,29.96,10.0,SW,3.5,-,N/A,,Clear,220,2013-08-02 09:15:00
4:35 AM,80.8,73.6,79,29.95,10.0,SW,3.5,-,N/A,,Clear,220,2013-08-02 09:35:00
4:55 AM,80.6,73.6,79,29.95,10.0,SW,3.5,-,N/A,,Clear,220,2013-08-02 09:55:00
5:15 AM,80.6,73.6,79,29.95,10.0,Calm,Calm,-,N/A,,Clear,0,2013-08-02 10:15:00
5:35 AM,79.9,73.8,81,29.95,10.0,South,3.5,-,N/A,,Clear,190,2013-08-02 10:35:00
5:55 AM,79.7,73.8,82,29.96,10.0,South,3.5,-,N/A,,Clear,190,2013-08-02 10:55:00
6:15 AM,79.7,73.8,82,29.97,10.0,SSW,3.5,-,N/A,,Clear,200,2013-08-02 11:15:00
6:35 AM,79.7,73.9,82,29.97,10.0,Calm,Calm,-,N/A,,Clear,0,2013-08-02 11:35:00
6:55 AM,79.0,73.8,84,29.98,10.0,Calm,Calm,-,N/A,,Clear,0,2013-08-02 11:55:00
7:35 AM,79.0,74.5,86,29.99,10.0,South,3.5,-,N/A,,Mostly Cloudy,180,2013-08-02 12:35:00
7:55 AM,80.2,75.2,85,29.99,10.0,SW,5.8,-,N/A,,Mostly Cloudy,220,2013-08-02 12:55:00
8:15 AM,81.3,75.6,83,29.99,10.0,SW,6.9,-,N/A,,Scattered Clouds,220,2013-08-02 13:15:00
8:35 AM,82.6,75.9,80,30.00,10.0,SSW,8.1,-,N/A,,Scattered Clouds,210,2013-08-02 13:35:00
8:55 AM,83.3,75.4,77,30.00,10.0,SW,9.2,-,N/A,,Mostly Cloudy,220,2013-08-02 13:55:00
9:15 AM,85.1,74.8,71,30.00,10.0,SSW,13.8,-,N/A,,Mostly Cloudy,200,2013-08-02 14:15:00
9:35 AM,85.5,74.3,69,30.00,10.0,SSW,12.7,-,N/A,,Scattered Clouds,210,2013-08-02 14:35:00
9:55 AM,87.1,73.6,64,30.01,10.0,SSW,10.4,-,N/A,,Scattered Clouds,210,2013-08-02 14:55:00
10:15 AM,88.2,72.7,60,30.00,10.0,WSW,9.2,-,N/A,,Clear,240,2013-08-02 15:15:00
10:35 AM,89.4,71.2,55,30.01,10.0,SW,6.9,-,N/A,,Clear,230,2013-08-02 15:35:00
10:55 AM,89.8,71.8,55,30.00,10.0,SW,4.6,-,N/A,,Clear,220,2013-08-02 15:55:00
11:15 AM,91.4,70.9,51,30.00,10.0,SW,10.4,-,N/A,,Clear,220,2013-08-02 16:15:00
11:35 AM,91.2,69.8,49,30.00,10.0,SW,6.9,-,N/A,,Clear,230,2013-08-02 16:35:00
11:55 AM,92.1,69.6,48,29.99,10.0,SSW,10.4,-,N/A,,Clear,210,2013-08-02 16:55:00
12:15 PM,93.2,68.9,45,29.99,10.0,SSW,9.2,-,N/A,,Clear,200,2013-08-02 17:15:00
12:35 PM,94.3,68.5,43,29.98,10.0,SSW,6.9,-,N/A,,Clear,210,2013-08-02 17:35:00
12:55 PM,95.0,67.1,40,29.98,10.0,SW,8.1,-,N/A,,Clear,220,2013-08-02 17:55:00
1:15 PM,94.6,66.0,39,29.98,10.0,Calm,Calm,-,N/A,,Clear,0,2013-08-02 18:15:00
1:35 PM,95.9,65.7,37,29.97,10.0,SSW,6.9,-,N/A,,Clear,210,2013-08-02 18:35:00
1:55 PM,96.3,65.7,36,29.97,10.0,West,4.6,-,N/A,,Clear,260,2013-08-02 18:55:00
2:15 PM,97.9,64.4,33,29.95,10.0,South,6.9,-,N/A,,Clear,190,2013-08-02 19:15:00
2:35 PM,98.8,63.1,31,29.94,10.0,SSE,5.8,-,N/A,,Clear,160,2013-08-02 19:35:00
2:55 PM,98.2,63.7,32,29.93,10.0,Calm,Calm,-,N/A,,Clear,0,2013-08-02 19:55:00
3:15 PM,99.5,62.4,29,29.92,10.0,Calm,Calm,-,N/A,,Clear,0,2013-08-02 20:15:00
3:35 PM,99.7,61.9,29,29.92,10.0,Calm,Calm,-,N/A,,Clear,0,2013-08-02 20:35:00
3:55 PM,101.1,62.2,28,29.91,10.0,Calm,Calm,-,N/A,,Clear,0,2013-08-02 20:55:00
4:15 PM,101.7,63.3,28,29.90,10.0,SSE,5.8,-,N/A,,Clear,160,2013-08-02 21:15:00
4:35 PM,102.0,63.0,28,29.90,10.0,South,9.2,-,N/A,,Clear,190,2013-08-02 21:35:00
4:55 PM,101.7,61.5,27,29.90,10.0,SSE,9.2,-,N/A,,Clear,160,2013-08-02 21:55:00
5:15 PM,101.5,59.9,25,29.90,10.0,SSE,6.9,16.1,N/A,,Clear,150,2013-08-02 22:15:00
5:35 PM,101.5,60.1,25,29.90,10.0,South,5.8,9.2,N/A,,Clear,170,2013-08-02 22:35:00
5:55 PM,101.1,59.0,25,29.89,10.0,SSE,6.9,-,N/A,,Clear,150,2013-08-02 22:55:00
6:15 PM,100.8,60.1,26,29.89,10.0,SE,6.9,-,N/A,,Clear,140,2013-08-02 23:15:00
6:35 PM,100.8,60.3,26,29.90,10.0,South,5.8,-,N/A,,Clear,170,2013-08-02 23:35:00
6:55 PM,100.0,61.7,28,29.90,10.0,SSE,5.8,-,N/A,,Clear,160,2013-08-02 23:55:00
7:15 PM,99.5,62.1,29,29.90,10.0,South,8.1,-,N/A,,Clear,180,2013-08-03 00:15:00
7:35 PM,98.6,62.4,30,29.90,10.0,SSE,6.9,-,N/A,,Clear,160,2013-08-03 00:35:00
7:55 PM,97.5,64.9,34,29.90,10.0,SE,9.2,-,N/A,,Clear,140,2013-08-03 00:55:00
8:15 PM,96.3,65.8,37,29.91,10.0,SE,8.1,-,N/A,,Clear,140,2013-08-03 01:15:00
8:35 PM,95.2,66.6,39,29.92,10.0,SSE,10.4,17.3,N/A,,Clear,150,2013-08-03 01:35:00
8:55 PM,94.5,67.1,41,29.92,10.0,SSE,9.2,-,N/A,,Scattered Clouds,160,2013-08-03 01:55:00
9:15 PM,93.2,68.4,44,29.93,10.0,South,10.4,-,N/A,,Scattered Clouds,170,2013-08-03 02:15:00
9:35 PM,91.9,68.9,47,29.94,10.0,SSE,9.2,-,N/A,,Clear,150,2013-08-03 02:35:00
9:55 PM,90.9,68.9,48,29.95,10.0,SSE,9.2,17.3,N/A,,Clear,160,2013-08-03 02:55:00
10:15 PM,90.0,69.1,50,29.97,10.0,South,15.0,19.6,N/A,,Clear,170,2013-08-03 03:15:00
10:35 PM,89.1,70.3,54,29.98,10.0,South,15.0,-,N/A,,Clear,170,2013-08-03 03:35:00
10:55 PM,88.0,71.6,58,29.99,10.0,South,15.0,19.6,N/A,,Clear,170,2013-08-03 03:55:00
11:15 PM,87.1,72.5,62,29.99,10.0,South,12.7,18.4,N/A,,Clear,170,2013-08-03 04:15:00
11:35 PM,86.4,72.5,63,29.99,10.0,SSE,5.8,-,N/A,,Clear,160,2013-08-03 04:35:00
11:55 PM,85.5,72.7,65,29.99,10.0,SSE,8.1,-,N/A,,Clear,160,2013-08-03 04:55:00